[[{"header":{"parameterUnit":"m.s-1","parameterCategory":1,"la1":30.2991,"la2":30.254,"lo1":-89.0895,"lo2":-89.0444,"dy":0.0017,"dx":0.0017,"nx":28,"ny":28,"refTime":"2025-04-26T09:00:00:Z","depth":0,"parameterNumber":2,"parameterNumberName":"U-component_of_WINDS"},"data":[0,0,0,0,0,0,0,0,0,0,0,0,0,0,0,0,0,0,0,0,0,0,0,0,0,0,0,0,0,0,0,0,0,0,0,0,0,0,0,0,0,0,0,0,0,0,0,0,0,0,0,0,0,0,0,0,0,0,-1.1681,-1.1679,0,-1.1556,-1.1555,-1.1553,-1.1507,-1.1507,-1.1507,-1.1508,-1.1377,-1.1373,-1.137,0,0,0,0,0,0,0,0,0,0,0,0,0,-1.1877,-1.1874,-1.1681,-1.1679,-1.1678,-1.1556,-1.1555,-1.1553,-1.1506,-1.1507,-1.1507,-1.1508,-1.1378,-1.1374,-1.1369,0,0,0,0,0,0,0,0,0,0,0,0,0,-1.1776,-1.1873,-1.1681,-1.164,-1.1635,-1.1557,-1.1554,-1.1552,-1.1506,-1.1507,-1.1508,-1.1508,-1.138,-1.1374,-1.1369,-1.1321,0,0,-1.1351,-1.1348,0,0,0,0,0,0,0,0,-1.1782,-1.1769,-1.1648,-1.1643,-1.1637,-1.1548,-1.1576,-1.1475,-1.1506,-1.1555,-1.1508,-1.1508,-1.1433,-1.1423,-1.1398,-1.1315,-1.1309,-1.135,-1.1347,-1.1345,-1.1343,0,0,0,0,0,0,0,-1.1789,-1.1774,-1.1631,-1.1646,-1.1639,-1.1627,-1.1614,-1.1556,-1.1492,-1.1551,-1.1547,-1.1533,-1.143,-1.1404,-1.1395,-1.1307,-1.1351,-1.1346,-1.1342,-1.134,-1.118,-1.1179,0,0,0,0,0,0,-1.1803,-1.178,-1.1635,-1.1628,-1.1713,-1.1623,-1.1608,-1.1576,-1.1493,-1.1481,-1.1533,-1.1532,-1.1414,-1.1402,-1.139,-1.1329,-1.1345,-1.1339,-1.1336,-1.118,-1.1179,-1.1179,0,0,0,0,0,0,-1.1807,-1.1791,-1.164,-1.1703,-1.1683,-1.1619,-1.1583,-1.1573,-1.1546,-1.1479,-1.1467,-1.1518,-1.1414,-1.1398,-1.1339,-1.1324,-1.1337,-1.1331,-1.1181,-1.118,-1.1179,-1.1206,0,0,0,0,0,0,-1.1813,-1.1792,-1.1774,-1.1703,-1.168,-1.1592,-1.1582,-1.157,-1.1537,-1.1534,-1.1462,-1.145,-1.1413,-1.1348,-1.1333,-1.1316,-1.1327,-1.1182,-1.1181,-1.1179,-1.1206,-1.1206,-1.1206,0,0,0,0,0,-1.182,-1.1786,-1.1773,-1.1756,-1.1655,-1.1591,-1.1578,-1.1536,-1.1536,-1.1516,-1.1474,-1.1453,-1.1328,-1.1342,-1.1325,-1.1306,-1.1183,-1.1181,-1.1179,-1.1207,-1.1206,-1.1206,0,0,0,0,0,0,-1.1855,-1.1776,-1.1761,-1.1702,-1.1654,-1.1583,-1.1557,-1.1537,-1.1486,-1.1486,-1.1435,-1.142,-1.1364,-1.1329,-1.1346,-1.1256,-1.1254,-1.1249,-1.1281,-1.128,-1.128,-1.1288,-1.1322,0,0,0,0,0,-1.1856,-1.1811,-1.1744,-1.1699,-1.1676,-1.1621,-1.1591,-1.1564,-1.1511,-1.149,-1.1443,-1.1392,-1.1341,-1.1309,-1.1259,-1.1202,-1.1185,-1.1181,-1.1181,-1.1181,-1.1176,-1.1144,-1.1141,-1.1173,-1.1173,-1.1173,0,0,-1.1857,-1.1808,-1.1783,-1.1705,-1.1664,-1.1618,-1.1604,-1.1555,-1.1521,-1.1482,-1.1423,-1.1388,-1.1327,-1.127,-1.1242,-1.1239,-1.1164,-1.1178,-1.1179,-1.1174,-1.1142,-1.1139,-1.1136,-1.1171,-1.1172,-1.1172,0,0,-1.1836,-1.1795,-1.1753,-1.1713,-1.1652,-1.1616,-1.1607,-1.1539,-1.1514,-1.1455,-1.1425,-1.1383,-1.1297,-1.1256,-1.1224,-1.1189,-1.1168,-1.1174,-1.1172,-1.1142,-1.1139,-1.1137,-1.1124,-1.112,-1.1171,-1.1171,-1.1171,0,-1.1844,-1.1775,-1.1733,-1.1687,-1.1653,-1.1619,-1.1576,-1.1539,-1.1464,-1.1442,-1.144,-1.1332,-1.1289,-1.1221,-1.1214,-1.1189,-1.1175,-1.1181,-1.1143,-1.114,-1.1137,-1.1124,-1.112,-1.1172,-1.1172,-1.1172,-1.1171,0,-1.1788,-1.1741,-1.1714,-1.1644,-1.1608,-1.1564,-1.1515,-1.1484,-1.146,-1.1425,-1.1365,-1.1313,-1.1252,-1.1234,-1.121,-1.1163,-1.1163,-1.1153,-1.115,-1.1136,-1.1123,-1.1118,-1.1173,-1.1173,-1.1173,-1.1172,0,0,-1.1782,-1.1693,-1.1683,-1.1652,-1.1583,-1.1545,-1.15,-1.1441,-1.1415,-1.1366,-1.1326,-1.1255,-1.1246,-1.121,-1.1181,-1.1154,-1.113,-1.1147,-1.1145,-1.1145,-1.1075,-1.1082,-1.1077,-1.1117,-1.1115,-1.1115,-1.108,0,-1.1751,-1.1668,-1.1631,-1.1565,-1.1521,-1.1488,-1.1448,-1.1402,-1.1368,-1.1325,-1.1288,-1.1238,-1.123,-1.1208,-1.118,-1.1139,-1.1115,-1.1141,-1.1078,-1.1076,-1.1092,-1.107,-1.1077,-1.1046,-1.1074,-1.1074,-1.1073,0,-1.1702,-1.1655,-1.1585,-1.1523,-1.1503,-1.1468,-1.1412,-1.1372,-1.1319,-1.1296,-1.1257,-1.123,-1.118,-1.1182,-1.1114,-1.1132,-1.1105,-1.1081,-1.1079,-1.107,-1.1073,-1.106,-1.1036,-1.1031,-1.1065,-1.1065,-1.1066,0,-1.1705,-1.1623,-1.157,-1.1545,-1.1471,-1.1447,-1.1416,-1.1363,-1.1331,-1.1282,-1.1261,-1.1207,-1.1177,-1.1136,-1.1095,-1.11,-1.103,-1.1028,-1.1009,-1.101,-1.0994,-1.0995,-1.0964,-1.0979,-1.0979,-1.0979,-1.0979,0,-1.1672,-1.1631,-1.157,-1.1538,-1.1491,-1.1448,-1.1402,-1.1368,-1.1323,-1.1283,-1.1252,-1.1215,-1.1164,-1.112,-1.1088,-1.1036,-1.1023,-1.1003,-1.0994,-1.1005,-1.1007,-1.0985,-1.0985,-1.0978,-1.0978,-1.0978,-1.0978,0,-1.1665,-1.1624,-1.1564,-1.1501,-1.1484,-1.1452,-1.1397,-1.1364,-1.133,-1.128,-1.1266,-1.1212,-1.116,-1.1116,-1.1046,-1.1025,-1.0971,-1.0961,-1.0989,-1.0984,-1.0967,-1.0969,-1.0919,-1.091,-1.0932,-1.0932,-1.0932,0,-1.1647,-1.1614,-1.1548,-1.152,-1.1489,-1.1444,-1.1411,-1.1369,-1.1336,-1.1275,-1.125,-1.1196,-1.115,-1.1068,-1.1022,-1.0969,-1.0958,-1.0944,-1.0949,-1.0961,-1.0956,-1.0958,-1.0954,-1.0943,-1.0943,-1.0943,-1.0943,0,-1.1618,-1.16,-1.1555,-1.1503,-1.1465,-1.1422,-1.1378,-1.1356,-1.1306,-1.1271,-1.1218,-1.1182,-1.1113,-1.1059,-1.1002,-1.0969,-1.0947,-1.0942,-1.0935,-1.0944,-1.0961,-1.0951,-1.0987,-1.0943,-1.0943,-1.0943,-1.0943,-1.0943,-1.1604,-1.1574,-1.1523,-1.1474,-1.1437,-1.1397,-1.1363,-1.1326,-1.1281,-1.1222,-1.12,-1.1146,-1.1095,-1.1016,-1.0983,-1.094,-1.0936,-1.0926,-1.0923,-1.092,-1.0922,-1.097,-1.0929,-1.0929,-1.0929,-1.0929,-1.0929,0,-1.1573,-1.154,-1.1495,-1.1435,-1.1397,-1.1382,-1.1333,-1.1301,-1.1254,-1.1209,-1.1166,-1.1105,-1.1054,-1.1005,-1.0951,-1.0926,-1.0915,-1.0913,-1.0913,-1.0906,-1.0928,-1.0939,-1.0923,-1.0923,-1.0923,-1.0923,-1.0923,-1.0923,-1.1553,-1.1501,-1.1477,-1.1406,-1.1373,-1.132,-1.1293,-1.1256,-1.122,-1.1154,-1.1112,-1.1081,-1.1034,-1.0977,-1.0929,-1.0916,-1.0898,-1.0898,-1.0883,-1.0903,-1.0904,-1.0905,-1.0916,-1.0895,-1.0895,-1.0864,-1.0864,-1.0864]},{"header":{"parameterUnit":"m.s-1","parameterCategory":1,"la1":30.2991,"la2":30.254,"lo1":-89.0895,"lo2":-89.0444,"dy":0.0017,"dx":0.0017,"nx":28,"ny":28,"refTime":"2025-04-26T09:00:00:Z","depth":0,"parameterNumber":3,"parameterNumberName":"V-component_of_WINDS"},"data":[0,0,0,0,0,0,0,0,0,0,0,0,0,0,0,0,0,0,0,0,0,0,0,0,0,0,0,0,0,0,0,0,0,0,0,0,0,0,0,0,0,0,0,0,0,0,0,0,0,0,0,0,0,0,0,0,0,0,2.1849,2.1848,0,2.1787,2.1786,2.1785,2.1787,2.1787,2.1788,2.1789,2.1721,2.1719,2.1716,0,0,0,0,0,0,0,0,0,0,0,0,0,2.1964,2.1962,2.1849,2.1848,2.1847,2.1787,2.1786,2.1785,2.1786,2.1788,2.1789,2.179,2.1722,2.1719,2.1716,0,0,0,0,0,0,0,0,0,0,0,0,0,2.1909,2.1961,2.1849,2.1841,2.1839,2.1787,2.1786,2.1785,2.1786,2.1788,2.1789,2.179,2.1723,2.1719,2.1715,2.1666,0,0,2.1704,2.1702,0,0,0,0,0,0,0,0,2.1912,2.1905,2.1843,2.1841,2.184,2.1796,2.1802,2.1745,2.1786,2.1806,2.1789,2.1791,2.1745,2.1739,2.1725,2.1663,2.166,2.1703,2.1701,2.1699,2.1698,0,0,0,0,0,0,0,2.1916,2.1908,2.1824,2.1842,2.184,2.1839,2.1832,2.1791,2.1769,2.1805,2.1805,2.1797,2.1744,2.1728,2.1723,2.1659,2.1703,2.17,2.1697,2.1696,2.1552,2.155,0,0,0,0,0,0,2.1922,2.1911,2.1826,2.1822,2.188,2.1836,2.1829,2.1808,2.1769,2.1765,2.1796,2.1798,2.1734,2.1728,2.1721,2.1659,2.1699,2.1696,2.1693,2.1553,2.1551,2.155,0,0,0,0,0,0,2.1925,2.1915,2.1829,2.1866,2.1855,2.1832,2.181,2.1807,2.1791,2.1763,2.1759,2.1785,2.1735,2.1726,2.1679,2.1656,2.1694,2.169,2.1555,2.1553,2.1551,2.1535,0,0,0,0,0,0,2.1928,2.1916,2.1897,2.1866,2.1853,2.179,2.1808,2.1804,2.1785,2.1786,2.1751,2.1746,2.1735,2.1685,2.1676,2.1652,2.1687,2.1557,2.1554,2.1551,2.1538,2.1533,2.1529,0,0,0,0,0,2.1932,2.1895,2.1896,2.1886,2.183,2.1788,2.1781,2.177,2.1783,2.1764,2.1746,2.1748,2.1661,2.1681,2.167,2.1644,2.1558,2.1555,2.1552,2.154,2.1534,2.1529,0,0,0,0,0,0,2.1922,2.1891,2.1892,2.1844,2.1819,2.1789,2.1764,2.1764,2.1734,2.1736,2.1723,2.1715,2.1668,2.1652,2.1674,2.1594,2.1611,2.1605,2.1606,2.16,2.1596,2.16,2.1684,0,0,0,0,0,2.1915,2.1885,2.1858,2.1818,2.1806,2.1787,2.1768,2.1763,2.1736,2.1725,2.1703,2.1676,2.1643,2.1621,2.1588,2.1536,2.1528,2.1513,2.1509,2.1505,2.15,2.147,2.1463,2.1539,2.1539,2.1539,0,0,2.1898,2.1877,2.1859,2.1816,2.1796,2.1763,2.1778,2.1743,2.1719,2.1719,2.1673,2.1657,2.1626,2.1576,2.1553,2.156,2.1477,2.1501,2.1498,2.1495,2.1465,2.1458,2.1452,2.1537,2.1537,2.1537,0,0,2.1852,2.1834,2.1798,2.1778,2.1748,2.1736,2.1728,2.1697,2.1687,2.1642,2.1641,2.1611,2.1554,2.1531,2.1512,2.1458,2.1457,2.1447,2.1423,2.1394,2.1388,2.1382,2.1361,2.1354,2.1443,2.1442,2.1442,0,2.1835,2.1787,2.1779,2.1744,2.1724,2.1725,2.1688,2.1668,2.1629,2.1614,2.1624,2.1553,2.1532,2.1476,2.1463,2.1448,2.1436,2.145,2.139,2.1384,2.1379,2.1358,2.1351,2.1441,2.1441,2.1442,2.1442,0,2.1767,2.1734,2.1708,2.1672,2.1649,2.1613,2.1598,2.1576,2.1573,2.1559,2.1512,2.1488,2.145,2.1437,2.1432,2.138,2.1385,2.1393,2.1409,2.137,2.1351,2.1343,2.144,2.144,2.144,2.1441,0,0,2.1711,2.1671,2.1661,2.1644,2.1612,2.1585,2.1549,2.1514,2.1494,2.1468,2.1435,2.1388,2.1394,2.1373,2.1366,2.134,2.1297,2.135,2.1349,2.134,2.1236,2.1229,2.1221,2.1297,2.1296,2.1295,2.1238,0,2.166,2.1596,2.1588,2.1531,2.15,2.15,2.1468,2.1444,2.1431,2.1401,2.1386,2.1351,2.1364,2.135,2.1326,2.1307,2.1275,2.1312,2.1265,2.1264,2.1272,2.1211,2.1204,2.1151,2.123,2.1229,2.1228,0,2.1591,2.1563,2.1504,2.1475,2.1462,2.1433,2.14,2.1372,2.1344,2.1336,2.1313,2.1309,2.127,2.129,2.1235,2.1259,2.124,2.1229,2.1226,2.122,2.1242,2.1201,2.1134,2.1126,2.1217,2.1217,2.1218,0,2.1554,2.1502,2.1459,2.1445,2.1411,2.1391,2.1375,2.1349,2.1328,2.1299,2.1285,2.1251,2.1232,2.1205,2.1191,2.1207,2.1136,2.1156,2.1127,2.1127,2.111,2.1111,2.1038,2.1101,2.1101,2.1101,2.1102,0,2.1497,2.146,2.1442,2.1416,2.1374,2.1365,2.1323,2.1309,2.1285,2.1255,2.1253,2.1224,2.1209,2.1178,2.1167,2.1122,2.1114,2.1105,2.1102,2.1104,2.1105,2.109,2.1092,2.1099,2.11,2.11,2.11,0,2.1448,2.1435,2.1388,2.136,2.1352,2.1323,2.1298,2.1272,2.1259,2.1221,2.1211,2.119,2.1153,2.1138,2.1092,2.1085,2.1033,2.1034,2.1042,2.1041,2.1013,2.1015,2.0926,2.0913,2.0986,2.0985,2.0985,0,2.1411,2.1383,2.1352,2.1332,2.1317,2.1285,2.1264,2.1253,2.1231,2.1197,2.1175,2.1138,2.1108,2.1048,2.1028,2.0993,2.0992,2.0963,2.0986,2.0989,2.0989,2.0991,2.0987,2.0958,2.0957,2.0957,2.0956,0,2.1347,2.1342,2.1312,2.128,2.1256,2.123,2.1204,2.1188,2.1173,2.1148,2.1111,2.1088,2.1042,2.1005,2.0968,2.0951,2.095,2.095,2.0941,2.0941,2.0947,2.0942,2.1029,2.0951,2.0952,2.0952,2.0952,2.0953,2.1301,2.1276,2.1251,2.1217,2.1198,2.1174,2.1148,2.1132,2.1102,2.1064,2.1059,2.1019,2.0991,2.0943,2.0924,2.0891,2.0898,2.0886,2.0882,2.0879,2.0876,2.0954,2.0885,2.0885,2.0885,2.0885,2.0885,0,2.1236,2.122,2.1189,2.1154,2.1128,2.1132,2.1104,2.1081,2.1046,2.1021,2.0992,2.0949,2.0913,2.0891,2.0854,2.0832,2.0831,2.0823,2.0823,2.0819,2.0873,2.0883,2.0824,2.0824,2.0824,2.0824,2.0824,2.0824,2.1198,2.1155,2.1147,2.1094,2.1078,2.1039,2.1023,2.1,2.098,2.0932,2.0903,2.0889,2.0865,2.0827,2.0793,2.0788,2.0773,2.0764,2.0759,2.0809,2.0815,2.0821,2.0831,2.0762,2.0762,2.0707,2.0707,2.0707]}]]